Вернуться в каталог

GEOSKAN-2

АктивенЛюбительское радиоSSO
NORAD 64890·PAYLOAD·🇷🇺 Russia
Это название спутника еще не подтверждено официальными источниками.

Запущен Jul 25, 2025 с Vostochny Cosmodrome

Loading…

Ближайшие Пролёты (ближайшие 24 часа)

TLE

СвежийSource: Space-Track

Эпоха: Sep 14, 2026, 14:28 UTC

1 64890U 25155Q   26257.60342090  .00009758  00000-0  31143-3 0  9995
2 64890  97.4661 227.0756 0006120 187.5397 172.5754 15.32686624 94478

Отслеживайте GEOSKAN-2 в реальном времени с AllMySat

Download on the App Store